Torna al catalogo

COSMOS 931

AttivoMilitareHEO
NORAD 10150·PAYLOAD·🇷🇺 Russia

Lanciato Jul 20, 1977 da Plesetsk Cosmodrome

Loading…

Prossimi Passaggi (prossime 24 ore)

TLE

AggiornatoSource: Space-Track

Epoca: Sep 12, 2026, 22:21 UTC

1 10150U 77068A   26255.93172258 -.00000489  00000-0  00000+0 0  9993
2 10150  71.0908  51.7357 5313450 320.1625  10.8584  2.00772784360521

Traccia COSMOS 931 in tempo reale con AllMySat

Download on the App Store